Simultaneous Nadir Overpasses (SNOs) Predictions

Prediction of SNOs between METOP-B and NOAA-19 Satellite Orbit:

Table of predicted SNOs for the next 14.0 days since TLE Epoch: 10/18/2013
Index Date (METOP-B) Time (METOP-B) Lat,Lon (METOP-B) SZA (METOP-B ) Date (NOAA-19) Time (NOAA-19) Lat,Lon (NOAA-19) SZA (NOAA-19 ) Distance(km) Time Diff (sec)
1 10/22/2013 19:07:57 -73.98, 67.88 94.80 10/22/2013 19:06:47 -73.97, 65.96 94.79 58.83 70
2 10/22/2013 19:58:46 73.56,-125.79 84.80 10/22/2013 19:57:41 73.55,-125.78 84.80 0.61 65
3 10/22/2013 20:49:27 -73.56, 41.54 95.19 10/22/2013 20:48:43 -73.56, 41.43 95.18 3.59 44
4 10/22/2013 21:40:07 73.53,-151.18 84.80 10/22/2013 21:39:44 73.54,-151.27 84.81 2.74 23
5 10/22/2013 22:30:49 -73.49, 16.04 95.24 10/22/2013 22:30:45 -73.50, 16.06 95.22 1.65 4
6 10/22/2013 23:21:30 73.46,-176.69 84.76 10/22/2013 23:21:47 73.48,-176.64 84.77 2.27 17
7 10/23/2013 00:12:11 -73.46, -9.35 95.23 10/23/2013 00:12:49 -73.48, -9.42 95.21 3.04 38
8 10/23/2013 01:02:52 73.44, 157.92 84.76 10/23/2013 01:03:51 73.46, 157.88 84.78 2.79 59
9 10/23/2013 01:53:37 -73.24, -35.19 95.43 10/23/2013 01:54:49 -73.27, -34.44 95.41 24.25 72




NCC Satellite Simultaneous Nadir Overpasses (SNOs) Prediction Service
